Regional Weather Roundup
Issued by NWS

Home | Current Version | Previous Version | Text Only | Print | Product List | Glossary Off
Versions: 1 2 3 4 5 6 7 8 9 10 11 12 13 14 15 16 17 18 19 20 21 22 23 24 25 26 27 28 29 30 31 32 33 34 35 36 37 38 39 40 41 42 43 44 45 46 47 48 49 50

884
ASUS43 KOAX 280402
RWRNE

WEATHER ROUNDUP FOR NEBRASKA
NATIONAL WEATHER SERVICE OMAHA NE
1100 PM CDT TUE SEP 27 2016

NOTES: SATELLITE DATA IS BEING USED TO AUGMENT CLOUD COVER ABOVE
       12000 FEET.
       "FAIR" INDICATES FEW OR NO CLOUDS BELOW 12,000 FEET WITH NO
       SIGNIFICANT WEATHER AND/OR OBSTRUCTIONS TO VISIBILITY.

  * THESE STATIONS DO NOT REPORT WEATHER SUCH AS RAIN...SNOW OR FOG.

NEZ001>004-019>022-054>056-280500-
NEBRASKA PANHANDLE

CITY           SKY/WX    TMP DP  RH WIND       PRES   REMARKS
SCOTTSBLUFF    CLEAR     56  42  59 CALM      30.11R
ALLIANCE       CLEAR     48  39  71 CALM      30.09R
CHADRON        CLEAR     54  44  69 SW9       30.08R
SIDNEY         CLEAR     50  35  56 W7        30.13R
$$

NEZ057>060-069>072-079>082-280500-
SOUTHWEST NEBRASKA

CITY           SKY/WX    TMP DP  RH WIND       PRES   REMARKS
NORTH PLATTE   CLEAR     55  45  68 CALM      30.01R
IMPERIAL       CLEAR     57  40  52 W3        30.04R
LEXINGTON      CLEAR     54  45  72 W7        29.99R
MCCOOK         CLEAR     57  46  66 CALM      30.00R
OGALLALA       CLEAR     54  43  67 W5        30.06R
$$

NEZ005>010-023>029-035>040-094-280500-
NORTH CENTRAL NEBRASKA

CITY           SKY/WX    TMP DP  RH WIND       PRES   REMARKS
VALENTINE      CLEAR     54  40  59 NW3       30.01R
AINSWORTH      CLEAR     56  46  69 CALM      30.01S
BROKEN BOW     CLEAR     54  42  64 N5        30.00R
O`NEILL        CLEAR     56  45  64 N7        29.98R
ORD            CLEAR     55  43  63 NW3       29.97R
THEDFORD       CLEAR     62  44  51 CALM      30.03S
$$

NEZ041-046>049-061>064-073>077-083>087-280500-
SOUTH CENTRAL NEBRASKA

CITY           SKY/WX    TMP DP  RH WIND       PRES   REMARKS
GRAND ISLAND   CLEAR     58  47  66 N7        29.95R
AURORA         CLEAR     57  49  75 NE6       29.93R
HASTINGS       CLEAR     59  47  64 N6        29.95R
HEBRON         CLEAR     56  51  83 CALM      29.91R
HOLDREGE       CLEAR     56  47  71 N3        29.97R
KEARNEY *      CLEAR     63  45  51 NW8       29.96R
YORK           CLEAR     55  50  82 CALM      29.93R
$$

NEZ011>018-030>034-042>045-280500-
NORTHEAST NEBRASKA

CITY           SKY/WX    TMP DP  RH WIND       PRES   REMARKS
NORFOLK        CLEAR     56  46  69 W6        29.93R
ALBION         CLEAR     52  47  84 CALM      29.95R
BLAIR          CLEAR     59  48  66 W3        29.88R
FREMONT        CLEAR     58  51  79 CALM      29.89S
TEKAMAH        CLEAR     53  48  83 N3        29.88R
WAYNE          CLEAR     51  46  84 CALM      29.92R
$$

NEZ050>053-065>068-078-088>093-280500-
SOUTHEAST NEBRASKA

CITY           SKY/WX    TMP DP  RH WIND       PRES   REMARKS
LINCOLN        CLEAR     55  51  86 N5        29.91R
OMAHA EPPLEY   CLEAR     60  51  72 CALM      29.87S
BEATRICE       CLEAR     58  52  80 CALM      29.89S
FALLS CITY     CLEAR     60  53  77 CALM      29.87R
NEBRASKA CITY  CLEAR     60  40  48 W7        29.88S
PLATTSMOUTH    CLEAR     63  42  46 W6        29.88S
$$

NEZ044-045-051>053-067-280500-
OMAHA AREA

CITY           SKY/WX    TMP DP  RH WIND       PRES   REMARKS
OMAHA EPPLEY   CLEAR     60  51  72 CALM      29.87S
BLAIR          CLEAR     59  48  66 W3        29.88R
FREMONT        CLEAR     58  51  79 CALM      29.89S
MILLARD        CLEAR     57  53  88 CALM      29.88S
OFFUTT AFB     CLEAR     53  52  99 CALM      29.87R
PLATTSMOUTH    CLEAR     63  42  46 W6        29.88S
WAHOO          FAIR      56  51  82 W5        29.89S
$$




USA.gov is the U.S. government's official web portal to all federal, state and local government web resources and services.